Location: Oteiza
(42.6167°N, 1.9500°W)
Time: 23:51:06
(UTC+02:00)

Amateur Radio Satellites - All Passes

Search period start: 28 April 2017 23:21
Search period end: 29 April 2017 23:21
Location: Oteiza, 42.6167°N, 1.9500°W

Satellite Date Start Highest point End Downlink Frequencies (MHz)
Time Altitude Azimuth
OBJECT BX 28 Apr 23:30:59 23:34:29 47° 260° (W) 23:38:01 145.990 - 145.960
TIGRISAT 28 Apr 23:56:05 00:00:12 43° 99° (E) 00:04:20 435.000
AO-85 29 Apr 00:00:09 00:01:06 11° 251° (WSW) 00:02:05 145.980
ESTCUBE 1 29 Apr 00:02:30 00:06:27 31° 68° (ENE) 00:10:25 437.505/2401.250
VELOX 1 29 Apr 00:09:26 00:10:43 11° 60° (ENE) 00:12:00 145.980
UNISAT 6 29 Apr 00:17:52 00:22:10 84° 105° (ESE) 00:26:31 437.425
LO-87 29 Apr 00:27:33 00:31:10 77° 258° (WSW) 00:34:49 145.935 - 145.965
AIST 2D 29 Apr 00:33:38 00:35:34 14° 92° (E) 00:37:30 435.315
FO-29 29 Apr 00:34:46 00:40:01 81° 104° (ESE) 00:45:38 435.910
PRISM 29 Apr 00:42:18 00:46:01 32° 291° (WNW) 00:49:42 437.425
50 SAT 29 Apr 00:49:56 00:51:23 12° 64° (ENE) 00:52:49 437.505
BEESAT 3 29 Apr 00:52:17 00:54:33 15° 250° (WSW) 00:56:48 437.485
SPROUT 29 Apr 00:53:03 00:56:38 27° 68° (ENE) 01:00:13 437.525
DX 1 29 Apr 00:53:34 00:55:27 13° 61° (ENE) 00:57:20 434.975-435.025
BEESAT 2 29 Apr 00:54:51 00:58:33 34° 244° (WSW) 01:02:12 435.950
DUCHIFAT 1 29 Apr 01:01:02 01:03:14 14° 91° (E) 01:05:25 145.980
EO-79 29 Apr 01:01:08 01:03:56 17° 93° (E) 01:06:44 145.935-145.965
NO-84 29 Apr 01:18:45 01:19:55 12° 15° (NNE) 01:21:03 435.350 FM
TIGRISAT 29 Apr 01:33:42 01:36:34 18° 295° (WNW) 01:39:29 435.000
ESTCUBE 1 29 Apr 01:39:26 01:43:14 26° 265° (W) 01:47:03 437.505/2401.250
POLYITAN 1 29 Apr 01:40:05 01:44:09 46° 99° (E) 01:48:12 437.675
VELOX 1 29 Apr 01:42:01 01:46:29 83° 256° (WSW) 01:50:59 145.980
QB50P2 29 Apr 01:46:46 01:50:56 61° 101° (E) 01:55:05 145.880/145.840
UKube-1 29 Apr 01:49:46 01:53:36 32° 69° (ENE) 01:57:29 .
BUGSAT 1 29 Apr 01:53:40 01:56:14 16° 93° (E) 01:58:46 437.445
UNISAT 6 29 Apr 01:57:51 01:58:14 10° 300° (WNW) 01:58:37 437.425
AIST 2D 29 Apr 02:05:40 02:08:54 34° 288° (WNW) 02:12:08 435.315
NANOSAT C BR1 29 Apr 02:06:26 02:10:38 86° 101° (E) 02:14:49 145.865
Oscar 19 29 Apr 02:13:39 02:14:53 11° 88° (E) 02:16:08 437.125/150
50 SAT 29 Apr 02:20:35 02:23:54 43° 261° (W) 02:27:16 437.505
FO-29 29 Apr 02:21:58 02:24:32 14° 301° (WNW) 02:27:10 435.910
DX 1 29 Apr 02:26:41 02:31:03 70° 257° (WSW) 02:35:27 434.975-435.025
SPROUT 29 Apr 02:28:49 02:32:28 27° 264° (W) 02:36:08 437.525
DUCHIFAT 1 29 Apr 02:35:09 02:39:11 50° 287° (WNW) 02:43:13 145.980
EO-79 29 Apr 02:35:56 02:39:52 40° 289° (WNW) 02:43:48 145.935-145.965
ITUPSAT 1 29 Apr 02:41:35 02:43:00 11° 58° (ENE) 02:44:24 437.325
PCSat 29 Apr 02:43:13 02:47:59 33° 110° (ESE) 02:52:47 145.827
NO-84 29 Apr 02:55:13 02:58:06 46° 36° (NE) 03:00:51 435.350 FM
POLYITAN 1 29 Apr 03:16:57 03:19:34 16° 296° (WNW) 03:22:10 437.675
QB50P2 29 Apr 03:24:16 03:26:12 13° 298° (WNW) 03:28:10 145.880/145.840
UKube-1 29 Apr 03:26:11 03:29:39 23° 265° (W) 03:33:09 .
BUGSAT 1 29 Apr 03:28:00 03:31:45 39° 289° (WNW) 03:35:29 437.445
BEESAT 29 Apr 03:33:40 03:37:58 35° 68° (ENE) 03:42:17 436.000
Oscar 19 29 Apr 03:49:40 03:54:54 90° 104° (ESE) 04:00:06 437.125/150
Gurwin Techsat 1B 29 Apr 04:09:31 04:14:52 81° 104° (ESE) 04:20:10 435.225
AO-7 29 Apr 04:13:02 04:18:07 17° 90° (E) 04:23:09 .
ITUPSAT 1 29 Apr 04:15:19 04:20:04 89° 68° (ENE) 04:24:51 437.325
PCSat 29 Apr 04:26:14 04:31:17 39° 308° (NW) 04:36:22 145.827
NO-84 29 Apr 04:33:48 04:35:14 13° 233° (SW) 04:36:39 435.350 FM
YUBILEINY 29 Apr 04:40:41 04:48:01 32° 83° (E) 04:55:21 435.215
KKS-1 29 Apr 04:40:59 04:43:40 16° 62° (ENE) 04:46:20 437.445
MOZHAYETS 4 29 Apr 04:43:35 04:48:08 84° 76° (ENE) 04:52:43
STARS 29 Apr 05:06:52 05:08:50 13° 61° (ENE) 05:10:48 437.465
BEESAT 29 Apr 05:11:53 05:15:47 25° 265° (W) 05:19:42 436.000
ITAMSAT 1 29 Apr 05:20:34 05:25:40 57° 101° (E) 05:30:45 435.822/435.867
Oscar 19 29 Apr 05:31:08 05:33:27 13° 302° (WNW) 05:35:45 437.125/150
CUBESAT XI-V 29 Apr 05:40:50 05:45:23 58° 73° (ENE) 05:50:01 437.345
Gurwin Techsat 1B 29 Apr 05:51:13 05:54:07 15° 301° (WNW) 05:57:00 435.225
AO-7 29 Apr 06:03:36 06:11:58 85° 107° (ESE) 06:20:20 .
KKS-1 29 Apr 06:15:22 06:19:45 56° 259° (W) 06:24:10 437.445
YUBILEINY 29 Apr 06:35:49 06:44:19 57° 283° (WNW) 06:52:53 435.215
STARS 29 Apr 06:40:13 06:44:36 69° 257° (WSW) 06:49:01 437.465
SO-50 29 Apr 06:52:32 06:56:41 34° 116° (ESE) 07:00:49 436.795
M-CUBED/EXP-1 PRIME 29 Apr 06:57:32 06:58:59 11° 54° (NE) 07:00:26 437.505
ITAMSAT 1 29 Apr 07:01:02 07:04:42 20° 298° (WNW) 07:08:21 435.822/435.867
RS-15 29 Apr 07:16:10 07:26:19 34° 104° (ESE) 07:36:42 29.354- 29.394
STRAND 1 29 Apr 07:16:41 07:19:38 16° 60° (ENE) 07:22:35 437.568
CUBESAT XI-V 29 Apr 07:20:31 07:23:08 15° 270° (W) 07:25:47 437.345
DOVE 4 29 Apr 07:22:27 07:26:21 28° 94° (E) 07:30:04 437.250
XW-2D 29 Apr 07:26:03 07:28:40 17° 93° (E) 07:31:17 145.860 - 145.880
XW-2B 29 Apr 07:32:50 07:35:43 20° 94° (E) 07:38:36 145.730 - 145.750
KAITUO 1B 29 Apr 07:36:39 07:39:17 18° 93° (E) 07:41:55 145.475/437.950
XW-2C 29 Apr 07:44:31 07:47:51 28° 96° (E) 07:51:10 145.795 - 145.815
LilacSat-2 29 Apr 07:46:18 07:49:45 31° 97° (E) 07:53:11 437.200
AO-7 29 Apr 07:57:34 08:03:48 25° 308° (NW) 08:10:04 .
XW-2F 29 Apr 08:07:50 08:11:34 52° 100° (E) 08:15:18 145.980 - 146.000
NUDT-PHONESAT 29 Apr 08:11:44 08:15:20 46° 99° (E) 08:18:56 437.300
HO-68 29 Apr 08:23:53 08:28:55 20° 91° (E) 08:33:54 435.675
CUTE-I 29 Apr 08:25:17 08:30:35 66° 102° (ESE) 08:35:51 437.470
M-CUBED/EXP-1 PRIME 29 Apr 08:27:59 08:32:39 81° 69° (ENE) 08:37:20 437.505
Tancredo 1 29 Apr 08:28:29 08:31:14 30° 138° (SE) 08:34:00 437.200
SO-50 29 Apr 08:33:02 08:37:08 31° 313° (NW) 08:41:14 436.795
YUBILEINY 29 Apr 08:41:00 08:43:24 11° 307° (NW) 08:45:49 435.215
STRAND 1 29 Apr 08:53:07 08:58:12 72° 258° (WSW) 09:03:19 437.568
XW-2D 29 Apr 08:59:29 09:02:56 33° 289° (WNW) 09:06:23 145.860 - 145.880
DOVE 4 29 Apr 09:00:07 09:04:00 28° 293° (WNW) 09:07:42 437.250
XW-2B 29 Apr 09:06:37 09:09:55 28° 290° (WNW) 09:13:14 145.730 - 145.750
ISS 29 Apr 09:08:48 09:12:01 59° 142° (SE) 09:15:14 437.550
KAITUO 1B 29 Apr 09:09:59 09:13:21 31° 289° (WNW) 09:16:44 145.475/437.950
XW-2A 29 Apr 09:15:09 09:18:20 39° 98° (E) 09:21:30 145.665 - 145.685
CUBEBUG 2 29 Apr 09:17:51 09:20:59 20° 94° (E) 09:24:08 437.445
XW-2C 29 Apr 09:18:59 09:21:53 21° 292° (WNW) 09:24:48 145.795 - 145.815
LilacSat-2 29 Apr 09:21:01 09:23:50 20° 293° (WNW) 09:26:38 437.200
CUTE 1.7 + AOD 2 29 Apr 09:21:12 09:25:23 49° 99° (E) 09:29:32 437.475
RS-15 29 Apr 09:25:38 09:37:46 76° 307° (NW) 09:50:14 29.354- 29.394
SEEDS 29 Apr 09:36:18 09:40:25 46° 99° (E) 09:44:30 437.485
XW-2F 29 Apr 09:43:39 09:45:16 12° 296° (WNW) 09:46:52 145.980 - 146.000
NUDT-PHONESAT 29 Apr 09:47:06 09:48:51 13° 295° (WNW) 09:50:36 437.300
ZACube-1 29 Apr 09:49:17 09:51:56 16° 92° (E) 09:54:34 437.345
AO-73 29 Apr 09:54:32 09:57:14 16° 92° (E) 09:59:58 145.935
PRISM 29 Apr 09:57:45 10:00:34 18° 65° (ENE) 10:03:23 437.425
Tancredo 1 29 Apr 10:04:11 10:07:05 35° 335° (NNW) 10:09:58 437.200
M-CUBED/EXP-1 PRIME 29 Apr 10:05:58 10:07:33 12° 266° (W) 10:09:08 437.505
CUTE-I 29 Apr 10:06:37 10:10:05 18° 300° (WNW) 10:13:33 437.470
Oscar 11 29 Apr 10:06:43 10:09:49 19° 93° (E) 10:12:54 .
HO-68 29 Apr 10:10:08 10:17:20 78° 289° (WNW) 10:24:31 435.675
UWE-3 29 Apr 10:34:45 10:38:59 88° 105° (ESE) 10:43:16 435.000/436.395/437.385
AAUSAT CUBESAT 2 29 Apr 10:36:20 10:40:33 77° 284° (WNW) 10:44:42 437.432
ISS 29 Apr 10:45:53 10:48:42 26° 340° (NNW) 10:51:32 437.550
FO-29 29 Apr 10:47:58 10:53:30 37° 69° (ENE) 10:58:33 435.910
XW-2A 29 Apr 10:49:23 10:50:44 12° 295° (WNW) 10:52:05 145.665 - 145.685
CUBEBUG 2 29 Apr 10:53:54 10:57:42 34° 289° (WNW) 11:01:31 437.445
TIGRISAT 29 Apr 10:55:19 10:59:24 41° 72° (ENE) 11:03:26 435.000
DELFI C3 29 Apr 10:57:34 11:00:24 18° 93° (E) 11:03:12 145.870
CUTE 1.7 + AOD 2 29 Apr 10:58:08 11:00:49 16° 296° (WNW) 11:03:29 437.475
OBJECT BX 29 Apr 11:00:18 11:02:09 13° 92° (E) 11:03:59 145.990 - 145.960
SEEDS 29 Apr 11:13:00 11:15:44 17° 295° (WNW) 11:18:28 437.485
O/OREOS (USA 219) 29 Apr 11:14:15 11:18:45 61° 109° (ESE) 11:23:19 437.305
UNISAT 6 29 Apr 11:17:03 11:21:25 78° 75° (ENE) 11:25:43 437.425
ZACube-1 29 Apr 11:24:22 11:28:25 45° 288° (WNW) 11:32:32 437.345
AO-73 29 Apr 11:29:39 11:33:40 44° 288° (WNW) 11:37:46 145.935
PCSat 29 Apr 11:29:51 11:34:45 33° 50° (NE) 11:39:38 145.827
PRISM 29 Apr 11:31:35 11:35:31 41° 261° (W) 11:39:30 437.425
Tancredo 1 29 Apr 11:41:36 11:43:37 16° 354° (N) 11:45:39 437.200
Oscar 11 29 Apr 11:42:02 11:46:06 40° 289° (WNW) 11:50:10 .
RS-15 29 Apr 11:42:10 11:52:46 32° 335° (NNW) 12:03:29 29.354- 29.394
DUCHIFAT 1 29 Apr 11:54:18 11:56:02 12° 62° (ENE) 11:57:46 145.980
EO-79 29 Apr 11:54:43 11:57:11 15° 64° (ENE) 11:59:38 145.935-145.965
HO-68 29 Apr 11:59:43 12:03:57 17° 308° (NW) 12:08:10 435.675
ISS 29 Apr 12:23:47 12:25:59 17° 1° (N) 12:28:11 437.550
DELFI C3 29 Apr 12:31:38 12:35:17 34° 289° (WNW) 12:38:53 145.870
OBJECT BX 29 Apr 12:32:35 12:36:01 39° 288° (WNW) 12:39:27 145.990 - 145.960
POLYITAN 1 29 Apr 12:33:07 12:37:01 38° 71° (ENE) 12:40:54 437.675
FO-29 29 Apr 12:33:09 12:38:36 32° 263° (W) 12:43:37 435.910
TIGRISAT 29 Apr 12:33:18 12:36:16 18° 267° (W) 12:39:13 435.000
AO-85 29 Apr 12:33:32 12:36:27 18° 113° (ESE) 12:39:18 145.980
QB50P2 29 Apr 12:39:41 12:43:45 49° 72° (ENE) 12:47:49 145.880/145.840
AIST 2D 29 Apr 12:40:04 12:43:32 87° 77° (ENE) 12:47:01 435.315
BUGSAT 1 29 Apr 12:44:39 12:46:48 14° 64° (ENE) 12:48:57 437.445
O/OREOS (USA 219) 29 Apr 12:55:38 12:58:36 17° 308° (NW) 13:01:34 437.305
NANOSAT C BR1 29 Apr 12:58:42 13:02:52 67° 74° (ENE) 13:07:03 145.865
PCSat 29 Apr 13:13:10 13:18:12 39° 248° (WSW) 13:23:12 145.827
Tancredo 1 29 Apr 13:17:57 13:20:21 20° 15° (NNE) 13:22:44 437.200
DUCHIFAT 1 29 Apr 13:27:01 13:31:10 64° 258° (WSW) 13:35:20 145.980
LO-87 29 Apr 13:27:12 13:30:44 66° 285° (WNW) 13:34:14 145.935 - 145.965
EO-79 29 Apr 13:28:26 13:32:32 50° 260° (W) 13:36:39 145.935-145.965
Oscar 19 29 Apr 13:29:54 13:33:29 19° 62° (ENE) 13:37:04 437.125/150
ESTCUBE 1 29 Apr 13:30:07 13:34:39 60° 101° (E) 13:39:07 437.505/2401.250
VELOX 1 29 Apr 13:32:20 13:35:18 17° 92° (E) 13:38:14 145.980
50 SAT 29 Apr 13:45:32 13:46:09 10° 91° (E) 13:46:45 437.505
Gurwin Techsat 1B 29 Apr 13:53:32 13:57:13 19° 61° (ENE) 14:00:54 435.225
ISS 29 Apr 14:00:22 14:03:15 28° 21° (NNE) 14:06:07 437.550
RS-15 29 Apr 14:00:41 14:10:35 26° 11° (N) 14:20:18 29.354- 29.394
POLYITAN 1 29 Apr 14:09:58 14:12:55 19° 267° (W) 14:15:54 437.675
AO-85 29 Apr 14:12:30 14:16:34 45° 308° (NW) 14:20:27 145.980
SPROUT 29 Apr 14:12:58 14:17:02 45° 99° (E) 14:21:06 437.525
DX 1 29 Apr 14:14:59 14:18:03 18° 93° (E) 14:21:05 434.975-435.025
QB50P2 29 Apr 14:17:26 14:19:48 15° 269° (W) 14:22:10 145.880/145.840
BUGSAT 1 29 Apr 14:17:41 14:21:44 53° 260° (W) 14:25:46 437.445
NANOSAT C BR1 29 Apr 14:38:12 14:39:01 10° 271° (W) 14:39:49 145.865
BEESAT 3 29 Apr 14:40:41 14:44:36 74° 122° (ESE) 14:48:36 437.485
BEESAT 2 29 Apr 14:46:28 14:49:58 31° 115° (ESE) 14:53:33 435.950
YUBILEINY 29 Apr 14:49:55 14:55:02 16° 58° (ENE) 15:00:08 435.215
Tancredo 1 29 Apr 14:53:30 14:56:37 82° 33° (NNE) 14:59:42 437.200
ITAMSAT 1 29 Apr 15:03:15 15:05:38 13° 58° (ENE) 15:08:02 435.822/435.867
Oscar 19 29 Apr 15:07:15 15:12:20 59° 259° (W) 15:17:28 437.125/150
VELOX 1 29 Apr 15:07:45 15:11:58 45° 289° (WNW) 15:16:09 145.980
ESTCUBE 1 29 Apr 15:08:20 15:10:56 15° 298° (WNW) 15:13:32 437.505/2401.250
UKube-1 29 Apr 15:11:19 15:15:33 52° 100° (E) 15:19:45 .
AO-7 29 Apr 15:12:34 15:19:20 30° 55° (NE) 15:26:08 .
50 SAT 29 Apr 15:15:59 15:19:20 45° 287° (WNW) 15:22:39 437.505
SO-50 29 Apr 15:22:46 15:26:59 38° 49° (NE) 15:31:12 436.795
Gurwin Techsat 1B 29 Apr 15:31:26 15:36:40 61° 259° (WSW) 15:41:57 435.225
ISS 29 Apr 15:36:42 15:39:53 51° 219° (SW) 15:43:03 437.550
SPROUT 29 Apr 15:49:50 15:52:36 17° 295° (WNW) 15:55:22 437.525
DX 1 29 Apr 15:50:18 15:54:23 41° 290° (WNW) 15:58:27 434.975-435.025
RS-15 29 Apr 16:15:03 16:27:01 51° 43° (NE) 16:38:25 29.354- 29.394
ITUPSAT 1 29 Apr 16:15:43 16:19:22 21° 94° (E) 16:23:01 437.325
BEESAT 3 29 Apr 16:20:23 16:22:41 15° 321° (NW) 16:24:59 437.485
BEESAT 2 29 Apr 16:24:20 16:27:45 26° 313° (NW) 16:31:12 435.950
Tancredo 1 29 Apr 16:31:03 16:32:03 11° 230° (SW) 16:33:04 437.200
MOZHAYETS 4 29 Apr 16:38:40 16:41:55 19° 92° (E) 16:45:09
ITAMSAT 1 29 Apr 16:39:10 16:44:21 88° 254° (WSW) 16:49:35 435.822/435.867
YUBILEINY 29 Apr 16:44:41 16:53:29 76° 81° (E) 17:02:18 435.215
UKube-1 29 Apr 16:48:33 16:51:09 16° 297° (WNW) 16:53:44 .
AO-7 29 Apr 17:03:13 17:11:28 70° 254° (WSW) 17:19:46 .
SO-50 29 Apr 17:03:33 17:07:16 26° 247° (WSW) 17:10:59 436.795
BEESAT 29 Apr 17:09:59 17:14:46 76° 103° (ESE) 17:19:31 436.000
CUBESAT XI-V 29 Apr 17:38:09 17:40:36 14° 90° (E) 17:43:02 437.345
ITUPSAT 1 29 Apr 17:52:51 17:57:21 42° 290° (WNW) 18:01:51 437.325
KKS-1 29 Apr 18:05:53 18:09:34 25° 95° (E) 18:13:13 437.445
CUTE-I 29 Apr 18:10:28 18:13:44 17° 60° (ENE) 18:17:00 437.470
XW-2D 29 Apr 18:10:36 18:10:47 10° 63° (ENE) 18:10:58 145.860 - 145.880
MOZHAYETS 4 29 Apr 18:14:53 18:19:17 45° 289° (WNW) 18:23:40
XW-2B 29 Apr 18:16:25 18:17:46 12° 63° (ENE) 18:19:06 145.730 - 145.750
ITAMSAT 1 29 Apr 18:23:43 18:24:32 10° 272° (W) 18:25:21 435.822/435.867
DOVE 4 29 Apr 18:27:21 18:32:06 35° 69° (ENE) 18:36:46 437.250
XW-2C 29 Apr 18:27:24 18:29:42 16° 66° (ENE) 18:32:01 145.795 - 145.815
RS-15 29 Apr 18:28:01 18:39:46 57° 248° (WSW) 18:50:57 29.354- 29.394
LilacSat-2 29 Apr 18:29:34 18:32:07 18° 67° (ENE) 18:34:41 437.200
STARS 29 Apr 18:29:34 18:32:44 19° 94° (E) 18:35:53 437.465
YUBILEINY 29 Apr 18:42:55 18:49:20 23° 280° (W) 18:55:45 435.215
XW-2F 29 Apr 18:49:37 18:52:46 27° 70° (ENE) 18:55:57 145.980 - 146.000
BEESAT 29 Apr 18:49:38 18:51:54 13° 300° (WNW) 18:54:10 436.000
NUDT-PHONESAT 29 Apr 18:52:06 18:55:01 23° 69° (ENE) 18:57:58 437.300
HO-68 29 Apr 18:54:47 18:59:15 18° 53° (NE) 19:03:43 435.675
AO-7 29 Apr 19:02:24 19:05:39 13° 273° (W) 19:08:55 .
CUBESAT XI-V 29 Apr 19:13:42 19:18:23 63° 286° (WNW) 19:23:01 437.345
XW-2D 29 Apr 19:40:44 19:44:26 63° 259° (W) 19:48:10 145.860 - 145.880
KKS-1 29 Apr 19:42:13 19:46:08 31° 292° (WNW) 19:50:01 437.445
O/OREOS (USA 219) 29 Apr 19:45:25 19:48:19 16° 52° (NE) 19:51:10 437.305
XW-2B 29 Apr 19:47:50 19:51:29 53° 260° (W) 19:55:10 145.730 - 145.750
CUTE-I 29 Apr 19:47:50 19:53:10 73° 257° (WSW) 19:58:31 437.470
XW-2A 29 Apr 19:48:08 19:50:11 15° 67° (ENE) 19:52:13 145.665 - 145.685
NO-84 29 Apr 19:49:37 19:53:15 42° 134° (SE) 19:56:35 435.350 FM
KAITUO 1B 29 Apr 19:49:59 19:53:38 63° 259° (W) 19:57:19 145.475/437.950
XW-2C 29 Apr 20:00:08 20:03:36 36° 262° (W) 20:07:06 145.795 - 145.815
LilacSat-2 29 Apr 20:02:45 20:06:09 33° 263° (W) 20:09:36 437.200
DOVE 4 29 Apr 20:05:06 20:09:45 31° 265° (W) 20:14:18 437.250
STARS 29 Apr 20:05:09 20:09:13 39° 290° (WNW) 20:13:15 437.465
CUTE 1.7 + AOD 2 29 Apr 20:14:21 20:18:13 37° 71° (ENE) 20:22:08 437.475
CUBEBUG 2 29 Apr 20:16:56 20:20:00 19° 66° (ENE) 20:23:01 437.445
XW-2F 29 Apr 20:24:05 20:26:54 20° 266° (W) 20:29:45 145.980 - 146.000
NUDT-PHONESAT 29 Apr 20:25:55 20:28:51 23° 265° (W) 20:31:49 437.300
SEEDS 29 Apr 20:28:29 20:32:16 34° 70° (ENE) 20:36:06 437.485
HO-68 29 Apr 20:38:48 20:45:56 84° 72° (ENE) 20:53:09 435.675
ZACube-1 29 Apr 20:46:36 20:48:45 14° 64° (ENE) 20:50:53 437.345
RS-15 29 Apr 20:47:29 20:49:11 10° 269° (W) 20:50:52 29.354- 29.394
AO-73 29 Apr 20:51:32 20:53:44 14° 64° (ENE) 20:55:55 145.935
Oscar 11 29 Apr 21:02:41 21:05:23 17° 64° (ENE) 21:08:06 .
AO-85 29 Apr 21:02:49 21:05:52 21° 45° (NE) 21:08:58 145.980
STRAND 1 29 Apr 21:03:01 21:07:43 36° 97° (E) 21:12:24 437.568
XW-2A 29 Apr 21:19:45 21:22:42 28° 263° (W) 21:25:40 145.665 - 145.685
O/OREOS (USA 219) 29 Apr 21:23:38 21:28:10 62° 251° (WSW) 21:32:38 437.305
AAUSAT CUBESAT 2 29 Apr 21:26:33 21:30:40 74° 76° (ENE) 21:34:51 437.432
NO-84 29 Apr 21:27:42 21:30:52 27° 330° (NNW) 21:33:48 435.350 FM
UWE-3 29 Apr 21:32:08 21:36:21 75° 76° (ENE) 21:40:32 435.000/436.395/437.385
M-CUBED/EXP-1 PRIME 29 Apr 21:41:04 21:45:04 49° 104° (ESE) 21:48:43 437.505
DELFI C3 29 Apr 21:44:48 21:46:34 13° 63° (ENE) 21:48:19 145.870
CUTE 1.7 + AOD 2 29 Apr 21:51:08 21:54:10 19° 267° (W) 21:57:15 437.475
CUBEBUG 2 29 Apr 21:52:20 21:56:22 38° 262° (W) 22:00:21 437.445
SEEDS 29 Apr 22:04:53 22:08:02 21° 267° (W) 22:11:13 437.485
ZACube-1 29 Apr 22:20:31 22:24:36 54° 260° (W) 22:28:40 437.345
AO-73 29 Apr 22:25:29 22:29:33 52° 261° (W) 22:33:35 145.935
HO-68 29 Apr 22:29:51 22:34:27 18° 270° (W) 22:39:06 435.675
Oscar 11 29 Apr 22:36:59 22:41:07 48° 261° (W) 22:45:19 .
STRAND 1 29 Apr 22:42:26 22:46:45 28° 294° (WNW) 22:51:04 437.568
AO-85 29 Apr 22:42:36 22:46:24 42° 242° (WSW) 22:50:21 145.980
BEESAT 3 29 Apr 22:56:48 23:00:45 52° 53° (NE) 23:04:39 437.485
BEESAT 2 29 Apr 23:03:13 23:06:42 26° 47° (NE) 23:10:09 435.950
NO-84 29 Apr 23:08:40 23:09:16 10° 350° (N) 23:09:51 435.350 FM
UNISAT 6 29 Apr 23:09:04 23:11:32 15° 92° (E) 23:14:00 437.425
OBJECT BX 29 Apr 23:10:24 23:14:01 89° 230° (SW) 23:17:41 145.990 - 145.960
PRISM 29 Apr 23:12:25 23:15:47 24° 95° (E) 23:19:07 437.425
